Simultaneous Nadir Overpasses (SNOs) Predictions

Prediction of SNOs between GOES-17 and TERRA Satellite Orbit:

Table of predicted SNOs for the next 14.0 days since TLE Epoch: 11/28/2020
Index Date Time (GOES-17) GOES-17 Lat,Lon TERRA Lat,Lon Distance(km) Time Diff (sec)
1 11/29/2020 07:42:50 0.04,-137.24 -0.06,-137.84 67.84 80
2 12/01/2020 07:27:57 0.04,-137.24 0.52,-134.87 268.61 80
3 12/01/2020 19:49:13 -0.03,-137.24 0.54,-140.04 317.43 80
4 12/03/2020 19:39:40 -0.03,-137.23 -0.05,-137.07 18.06 80
5 12/05/2020 19:27:28 -0.02,-137.22 -0.70,-134.12 352.76 80
6 12/06/2020 07:48:52 0.02,-137.21 -0.40,-139.31 238.31 80
7 12/08/2020 07:33:59 0.02,-137.19 0.20,-136.35 95.83 80
8 12/08/2020 19:55:14 -0.02,-137.18 0.92,-141.50 490.94 80
9 12/10/2020 07:21:46 0.02,-137.16 0.80,-133.38 429.44 80
10 12/10/2020 19:43:02 -0.02,-137.16 0.25,-138.55 157.52 80
